[[{"header":{"parameterUnit":"m.s-1","parameterCategory":1,"la1":30.2992,"la2":30.254,"lo1":-89.0895,"lo2":-89.0443,"dy":0.0025,"dx":0.0025,"nx":19,"ny":19,"refTime":"2026-04-25T09:00:00:Z","depth":0,"parameterNumber":2,"parameterNumberName":"U-component_of_WINDS"},"data":[0,0,0,-0.6953,-0.6951,-0.6844,-0.6844,-0.6725,-0.6724,0,0,0,0,0,0,0,0,0,0,0,-0.6996,-0.6996,-0.6953,-0.695,-0.6844,-0.6844,-0.6725,-0.6724,0,0,0,0,0,0,0,0,0,0,0,-0.6996,-0.6996,-0.6995,-0.695,-0.6845,-0.6844,-0.6726,-0.6799,0,0,0,0,0,0,0,0,0,0,-0.6899,-0.6952,-0.6996,-0.6995,-0.695,-0.6845,-0.6844,-0.6803,-0.6795,-0.6781,0,-0.6774,0,-0.6747,-0.6718,-0.6717,0,0,0,-0.6941,-0.6958,-0.6919,-0.6995,-0.6949,-0.6845,-0.689,-0.6798,-0.6789,-0.6771,-0.6772,-0.6767,-0.6746,-0.6717,-0.6717,-0.6673,-0.6673,0,0,-0.6947,-0.6983,-0.6925,-0.6914,-0.6933,-0.6893,-0.6887,-0.6792,-0.6795,-0.6771,-0.6764,-0.6744,-0.6716,-0.6716,-0.6673,-0.6673,0,0,0,-0.697,-0.6988,-0.695,-0.6919,-0.6899,-0.689,-0.6883,-0.6799,-0.6784,-0.6762,-0.6742,-0.6716,-0.6715,-0.6672,-0.6673,-0.6719,0,0,0,-0.6973,-0.7001,-0.6953,-0.6974,-0.6901,-0.6848,-0.6892,-0.6791,-0.6779,-0.6743,-0.6716,-0.6714,-0.6672,-0.6672,-0.6717,-0.6734,0,0,0,-0.6999,-0.7004,-0.6993,-0.6976,-0.6932,-0.6849,-0.6828,-0.6787,-0.6767,-0.6717,-0.6713,-0.6672,-0.6672,-0.6715,-0.6731,-0.6732,0,0,0,-0.7036,-0.7036,-0.6994,-0.6985,-0.6933,-0.6879,-0.6828,-0.6785,-0.6748,-0.6715,-0.6672,-0.6673,-0.6715,-0.6729,-0.6731,-0.6739,-0.6746,0,0,-0.7055,-0.7039,-0.7031,-0.6991,-0.6953,-0.6892,-0.686,-0.6792,-0.6754,-0.6702,-0.67,-0.6717,-0.6731,-0.6732,-0.6776,-0.6782,0,0,0,-0.7049,-0.7044,-0.7026,-0.6993,-0.6941,-0.6897,-0.683,-0.6804,-0.6758,-0.6735,-0.6718,-0.6724,-0.6723,-0.6725,-0.673,-0.6726,-0.6676,-0.6675,-0.6675,-0.7127,-0.7079,-0.7061,-0.7,-0.6969,-0.6899,-0.6868,-0.6821,-0.6782,-0.6779,-0.6762,-0.6795,-0.6799,-0.6803,-0.6799,-0.6764,-0.6764,-0.6764,-0.6764,-0.715,-0.7133,-0.7081,-0.7045,-0.6993,-0.6962,-0.6894,-0.6867,-0.683,-0.6804,-0.68,-0.6775,-0.6811,-0.6805,-0.6767,-0.6767,-0.6766,-0.6766,-0.6766,-0.7194,-0.7178,-0.7147,-0.7094,-0.7057,-0.6995,-0.6961,-0.6915,-0.6872,-0.6869,-0.6846,-0.6845,-0.6837,-0.6861,-0.6861,-0.6861,-0.6862,-0.6862,-0.6862,-0.7253,-0.7216,-0.7194,-0.7139,-0.7111,-0.7068,-0.6998,-0.6968,-0.6924,-0.6893,-0.6892,-0.6852,-0.6824,-0.6817,-0.6863,-0.6863,-0.6863,-0.6863,-0.6862,-0.7291,-0.7275,-0.7241,-0.7213,-0.7143,-0.7109,-0.7051,-0.6995,-0.6964,-0.6949,-0.6909,-0.6896,-0.6876,-0.6871,-0.6865,-0.6921,-0.6921,-0.6921,-0.6921,-0.7328,-0.7314,-0.7267,-0.7225,-0.7179,-0.7123,-0.7083,-0.7028,-0.6968,-0.6946,-0.6931,-0.692,-0.6917,-0.6898,-0.6893,-0.6886,-0.6946,-0.6946,-0.6946,-0.7348,-0.7327,-0.7303,-0.7245,-0.7187,-0.7137,-0.7098,-0.7051,-0.698,-0.6946,-0.6927,-0.6926,-0.6906,-0.6903,-0.6868,-0.6862,-0.6848,0,0]},{"header":{"parameterUnit":"m.s-1","parameterCategory":1,"la1":30.2992,"la2":30.254,"lo1":-89.0895,"lo2":-89.0443,"dy":0.0025,"dx":0.0025,"nx":19,"ny":19,"refTime":"2026-04-25T09:00:00:Z","depth":0,"parameterNumber":3,"parameterNumberName":"V-component_of_WINDS"},"data":[0,0,0,5.6309,5.631,5.6345,5.6345,5.6394,5.6394,0,0,0,0,0,0,0,0,0,0,0,5.6302,5.6303,5.6309,5.631,5.6345,5.6345,5.6394,5.6394,0,0,0,0,0,0,0,0,0,0,0,5.6302,5.6302,5.6303,5.631,5.6345,5.6345,5.6394,5.6366,0,0,0,0,0,0,0,0,0,0,5.6331,5.6327,5.6302,5.6303,5.6311,5.6345,5.6345,5.6364,5.6367,5.638,0,5.6393,0,5.6395,5.6398,5.6398,0,0,0,5.6307,5.6325,5.6332,5.6303,5.6311,5.6345,5.6329,5.6366,5.6369,5.6384,5.6394,5.6396,5.6396,5.6398,5.6399,5.649,5.649,0,0,5.6305,5.6309,5.6329,5.6334,5.6331,5.6327,5.633,5.6368,5.6378,5.6394,5.6397,5.6397,5.6399,5.6399,5.6489,5.649,0,0,0,5.6302,5.6308,5.6314,5.6333,5.6339,5.6329,5.6331,5.6376,5.6378,5.6397,5.6397,5.6399,5.64,5.6489,5.649,5.6526,0,0,0,5.63,5.6306,5.6313,5.6316,5.6338,5.6358,5.6339,5.6375,5.638,5.6397,5.6399,5.64,5.6488,5.6489,5.6523,5.6542,0,0,0,5.6299,5.6306,5.6312,5.6316,5.6332,5.6357,5.6361,5.6376,5.638,5.6398,5.64,5.6488,5.6489,5.6521,5.6538,5.6571,0,0,0,5.6297,5.6339,5.6313,5.6361,5.6332,5.638,5.6361,5.6395,5.6415,5.6399,5.6488,5.6489,5.6521,5.6536,5.6568,5.66,5.6614,0,0,5.6353,5.6346,5.6374,5.6352,5.6406,5.6374,5.6433,5.6445,5.644,5.6473,5.6476,5.6524,5.6538,5.657,5.6682,5.6693,0,0,0,5.6393,5.6414,5.6427,5.6449,5.6462,5.6476,5.6479,5.6485,5.6514,5.6459,5.6543,5.6551,5.657,5.6585,5.6594,5.6611,5.6496,5.6496,5.6496,5.6477,5.6474,5.6522,5.6525,5.6546,5.6552,5.657,5.6578,5.6563,5.6584,5.6594,5.6663,5.6681,5.6687,5.6706,5.6609,5.6609,5.6609,5.6609,5.6561,5.6591,5.6579,5.6621,5.6617,5.6651,5.6661,5.6651,5.6683,5.6653,5.6669,5.664,5.6699,5.6715,5.6612,5.6611,5.6611,5.6611,5.661,5.6617,5.6632,5.6641,5.6677,5.6704,5.6704,5.6738,5.6731,5.6725,5.6741,5.6754,5.6754,5.6755,5.6748,5.6748,5.6748,5.6749,5.6749,5.6749,5.6673,5.6683,5.6713,5.6736,5.6752,5.6772,5.6783,5.6798,5.6813,5.6806,5.6806,5.6794,5.6705,5.6685,5.6753,5.6752,5.6751,5.6751,5.6751,5.6763,5.6744,5.6791,5.6808,5.6837,5.6867,5.686,5.6893,5.6905,5.6922,5.6907,5.6842,5.6834,5.6826,5.681,5.6906,5.6906,5.6906,5.6906,5.6813,5.6809,5.686,5.6889,5.6916,5.6917,5.6972,5.6982,5.6988,5.6996,5.6981,5.6958,5.695,5.6947,5.6937,5.6921,5.7043,5.7044,5.7044,5.687,5.687,5.6919,5.6929,5.6952,5.6973,5.7026,5.7059,5.7061,5.7049,5.7003,5.6997,5.6959,5.6946,5.6933,5.6918,5.6889,0,0]}]]